This is the latest recevied weather packets stored in our database for station/object KE8RXN. If no packets are shown the sender has not sent any weather packets the latest 10 day(s).
| Time | Temp. | Humidity | Pressure | Rain* | Wind** | Luminosity | Snow |
|---|---|---|---|---|---|---|---|
| 1788562801 | 25.56° C | 84% | 1018 hPa | 0 mm | - | 80 W/m² | - |
| 1788562498 | 25.56° C | 83% | 1018 hPa | 0 mm | - | 81 W/m² | - |
| 1788562193 | 25.56° C | 82% | 1017.9 hPa | 0 mm | - | 78 W/m² | - |
| 1788561889 | 26.11° C | 81% | 1017.7 hPa | 0 mm | - | 105 W/m² | - |
| 1788561589 | 26.11° C | 80% | 1017.8 hPa | 0 mm | - | 108 W/m² | - |
| 1788561288 | 26.67° C | 79% | 1017.7 hPa | 0 mm | - | 93 W/m² | - |
| 1788560983 | 26.67° C | 78% | 1017.7 hPa | 0 mm | - | 108 W/m² | - |
| 1788560678 | 26.67° C | 77% | 1017.9 hPa | 0 mm | - | 96 W/m² | - |
| 1788560372 | 26.67° C | 78% | 1017.7 hPa | 0 mm | - | 107 W/m² | - |
| 1788560067 | 26.67° C | 79% | 1017.7 hPa | 0 mm | - | 201 W/m² | - |
| 1788559763 | 27.22° C | 78% | 1017.6 hPa | 0 mm | - | 226 W/m² | - |
| 1788559462 | 26.67° C | 79% | 1017.4 hPa | 0 mm | - | 257 W/m² | - |
| 1788559157 | 26.67° C | 79% | 1017.3 hPa | 0 mm | - | 293 W/m² | - |
| 1788558852 | 26.11° C | 81% | 1017.2 hPa | 0 mm | - | 336 W/m² | - |
| 1788558548 | 26.11° C | 81% | 1017.1 hPa | 0 mm | - | 368 W/m² | - |
| 1788558244 | 26.11° C | 81% | 1017.1 hPa | 0 mm | - | 371 W/m² | - |
| 1788557942 | 26.11° C | 81% | 1017.2 hPa | 0 mm | - | 405 W/m² | - |
| 1788557637 | 26.67° C | 80% | 1017.2 hPa | 0 mm | - | 349 W/m² | - |
| 1788557333 | 26.11° C | 81% | 1017.1 hPa | 0 mm | - | 307 W/m² | - |
| 1788557027 | 25.56° C | 83% | 1017.3 hPa | 0 mm | - | 492 W/m² | - |
| 1788556723 | 25° C | 84% | 1017.4 hPa | 0 mm | - | 446 W/m² | - |
| 1788556417 | 25.56° C | 82% | 1017.3 hPa | 0 mm | - | 385 W/m² | - |
| 1788556112 | 25° C | 84% | 1017.3 hPa | 0 mm | - | 304 W/m² | - |
| 1788555806 | 25° C | 84% | 1017.5 hPa | 0 mm | - | 251 W/m² | - |
| 1788555503 | 25° C | 85% | 1017.6 hPa | 0 mm | - | 250 W/m² | - |
* Rain latest hour (hover to see other rain measurements)
** Current wind speed in m/s (hover to see current wind gust speed)